{"data":{"norad_id":57514,"epoch":"2026-09-20T12:37:09.978816Z","epoch_age_seconds":125701,"freshness":"FRESH","line1":"1 57514U 23113V   26263.52580994 -.00000344  00000+0 -29740-5 0  9992","line2":"2 57514  43.0045 355.6612 0001384 248.3178 111.7527 15.27576022173470","mean_motion":15.27576022,"eccentricity":0.0001384,"inclination_deg":43.0045,"raan_deg":355.6612,"arg_perigee_deg":248.3178,"mean_anomaly_deg":111.7527,"bstar":-2.974e-6,"rev_number":17347,"period_min":94.266994196116,"perigee_km":482.11141782432,"apogee_km":484.01059743284,"semimajor_km":6861.1980076286,"source":"CELESTRAK","updated_at":"2026-09-21T09:00:33.635962Z"}}